STARLINK-1343 (45584 NORAD) Tracking and Keplerian Element Data

This shows tracking and keplerian element data for the satellite.

Feedback or suggestion? Click here.




ElementValue
Catalog45584
NameSTARLINK-1343
Epoch Orbit182
Epoch Day145.58334491
Epoch Year2020
RAAN242.5285
Inclination52.9977
Eccentricity0.0001502
Argument of Perigee85.5164
Mean Anonmoly91.8976
Mean Motion15.62784428
Decay Rate8.342E-05
L11 45584U 20025BF 20145.58334491 .00008342 00000-0 96728-4 0 9997
L22 45584 52.9977 242.5285 0001502 85.5164 91.8976 15.62784428 1820

Live tracking and technical data element details for STARLINK-1343 (NORAD 45584). STARLINK-1343 can be tracked NOW for your location showing map with azimuth and elevation plus other details from your city location.

Track the satellite on the map from your city or location and see movement details for azimuth, elevation, latitude, longitude, range, height, and movement on the map or in text.







IsCatalogInMostPopularTable: catalog: 45584, numindb: 10
Update: records affected: 1



GetName: 45584 STARLINK-1343

Hit Count: updated at: Tue, 26 May 2020 02:43:07 GMT